OSCAR 30 [?]

Last updated on Wed Jun 28 2023 00:03:29 GMT+0000 (Coordinated Universal Time)

1 15935U 85066A 23178.17684056 .00000127 00000+0 21001-3 0 9992 2 15935 90.1830 84.4722 0170461 101.2784 64.3358 13.35826587844491
UTC large
Height (km)
Speed (km/s)
/
Latitude / Longitude
Inclination (degrees)
Orbital Period (minutes)
Azimuth
Elevation
Range (km)
Doppler Factor

Next 0 passes for location: London (51.5072 / 0.1276)

Sorry there are no passes over London.